TimeHST,TemperatureF,Dew PointF,Humidity,Sea Level PressureIn,VisibilityMPH,Wind Direction,Wind SpeedMPH,Gust SpeedMPH,PrecipitationIn,Events,Conditions,WindDirDegrees,DateUTC
12:53 AM,73.9,64.9,73,29.96,10.0,NNE,10.4,-,N/A,,Clear,20,2013-03-23 10:53:00
1:53 AM,73.9,64.9,73,29.96,10.0,NNE,10.4,-,N/A,,Partly Cloudy,30,2013-03-23 11:53:00
2:53 AM,73.9,64.9,73,29.94,10.0,North,9.2,-,N/A,,Overcast,360,2013-03-23 12:53:00
3:53 AM,73.0,66.0,79,29.93,10.0,NNE,10.4,-,N/A,,Overcast,30,2013-03-23 13:53:00
4:53 AM,73.9,64.0,71,29.93,10.0,NNW,9.2,-,N/A,,Mostly Cloudy,340,2013-03-23 14:53:00
5:53 AM,73.0,61.0,66,29.95,10.0,NE,9.2,-,N/A,,Partly Cloudy,40,2013-03-23 15:53:00
6:53 AM,73.9,62.1,66,29.97,10.0,NNE,8.1,-,N/A,,Mostly Cloudy,20,2013-03-23 16:53:00
7:53 AM,75.9,62.1,62,29.99,10.0,North,9.2,-,N/A,,Mostly Cloudy,10,2013-03-23 17:53:00
8:53 AM,80.1,62.1,54,29.99,10.0,North,12.7,-,N/A,,Clear,360,2013-03-23 18:53:00
9:53 AM,81.0,62.1,52,30.00,10.0,North,17.3,-,N/A,,Scattered Clouds,350,2013-03-23 19:53:00
10:53 AM,80.1,64.9,60,29.99,10.0,North,15.0,-,N/A,,Partly Cloudy,360,2013-03-23 20:53:00
11:53 AM,78.1,64.0,62,29.98,10.0,NNW,16.1,-,N/A,,Mostly Cloudy,340,2013-03-23 21:53:00
12:53 PM,81.0,66.9,62,29.96,10.0,North,15.0,-,N/A,,Mostly Cloudy,350,2013-03-23 22:53:00
1:53 PM,81.0,66.0,60,29.94,10.0,NW,16.1,-,N/A,,Mostly Cloudy,320,2013-03-23 23:53:00
2:53 PM,81.0,66.0,60,29.92,10.0,NNW,16.1,-,N/A,,Partly Cloudy,340,2013-03-24 00:53:00
3:53 PM,79.0,66.9,66,29.91,10.0,NNW,15.0,-,N/A,,Mostly Cloudy,340,2013-03-24 01:53:00
4:53 PM,77.0,66.9,71,29.91,10.0,NNW,17.3,-,N/A,,Overcast,340,2013-03-24 02:53:00
5:53 PM,77.0,66.9,71,29.93,10.0,NNW,10.4,-,N/A,,Overcast,330,2013-03-24 03:53:00
6:53 PM,75.9,68.0,76,29.96,10.0,NNW,12.7,-,N/A,,Overcast,330,2013-03-24 04:53:00
7:53 PM,75.9,69.1,79,29.98,10.0,SE,4.6,-,N/A,,Overcast,140,2013-03-24 05:53:00
8:18 PM,73.4,66.2,78,29.98,10.0,SE,12.7,-,N/A,,Overcast,130,2013-03-24 06:18:00
8:53 PM,73.9,68.0,82,30.00,10.0,SE,12.7,-,N/A,,Overcast,130,2013-03-24 06:53:00
9:32 PM,73.4,66.2,78,30.00,10.0,SSE,10.4,-,N/A,,Scattered Clouds,150,2013-03-24 07:32:00
9:53 PM,73.9,66.9,79,30.00,10.0,SSE,6.9,-,N/A,,Partly Cloudy,160,2013-03-24 07:53:00
10:53 PM,73.9,66.0,76,29.98,10.0,ESE,8.1,-,N/A,,Clear,120,2013-03-24 08:53:00
11:53 PM,73.0,64.9,76,29.97,10.0,ESE,6.9,-,N/A,,Clear,120,2013-03-24 09:53:00